Simultaneous Nadir Overpasses (SNOs) Predictions

Prediction of SNOs between GOES-15 and TERRA Satellite Orbit:

Table of predicted SNOs for the next 14.0 days since TLE Epoch: 2/13/2016
Index Date Time (GOES-15) GOES-15 Lat,Lon TERRA Lat,Lon Distance(km) Time Diff (sec)
1 02/13/2016 07:37:16 -0.05,-135.35 -0.24,-136.37 114.74 80
2 02/15/2016 07:22:23 -0.05,-135.35 0.37,-133.40 221.37 80
3 02/15/2016 19:43:37 0.05,-135.31 0.73,-138.56 368.79 80
4 02/17/2016 19:31:24 0.05,-135.30 0.10,-135.60 33.25 80
5 02/19/2016 19:21:52 0.04,-135.29 -0.53,-132.64 302.04 80
6 02/20/2016 07:43:15 -0.04,-135.32 -0.56,-137.83 284.65 80
7 02/22/2016 07:28:21 -0.04,-135.31 0.03,-134.86 50.44 80
8 02/24/2016 07:16:08 -0.04,-135.29 0.70,-131.90 385.28 80
9 02/24/2016 19:37:22
